TimeEDT,TemperatureF,Dew PointF,Humidity,Sea Level PressureIn,VisibilityMPH,Wind Direction,Wind SpeedMPH,Gust SpeedMPH,PrecipitationIn,Events,Conditions,WindDirDegrees,DateUTC
12:56 AM,66.0,59.0,78,30.01,10.0,Calm,Calm,-,N/A,,Clear,0,2014-06-25 04:56:00
1:56 AM,64.9,59.0,81,30.00,10.0,Calm,Calm,-,N/A,,Clear,0,2014-06-25 05:56:00
2:56 AM,64.9,61.0,87,30.00,10.0,Calm,Calm,-,N/A,,Mostly Cloudy,0,2014-06-25 06:56:00
3:56 AM,66.9,62.1,84,29.99,10.0,SE,4.6,-,N/A,,Mostly Cloudy,130,2014-06-25 07:56:00
4:56 AM,66.0,63.0,90,29.99,10.0,Calm,Calm,-,N/A,,Mostly Cloudy,0,2014-06-25 08:56:00
5:56 AM,66.0,63.0,90,29.99,10.0,Calm,Calm,-,N/A,,Overcast,0,2014-06-25 09:56:00
6:56 AM,69.1,66.0,90,29.99,9.0,SSW,3.5,-,N/A,,Mostly Cloudy,210,2014-06-25 10:56:00
7:56 AM,71.1,66.9,87,29.99,8.0,Calm,Calm,-,N/A,,Overcast,0,2014-06-25 11:56:00
8:56 AM,73.0,66.9,81,29.99,10.0,Variable,4.6,-,N/A,,Overcast,0,2014-06-25 12:56:00
9:13 AM,73.4,66.2,78,30.00,10.0,SW,4.6,-,N/A,,Overcast,230,2014-06-25 13:13:00
9:56 AM,73.9,68.0,82,29.98,10.0,SW,4.6,-,N/A,,Overcast,220,2014-06-25 13:56:00
10:56 AM,77.0,68.0,74,29.97,10.0,Variable,4.6,-,N/A,,Mostly Cloudy,0,2014-06-25 14:56:00
11:56 AM,79.0,70.0,74,29.95,8.0,SSE,9.2,-,N/A,,Overcast,150,2014-06-25 15:56:00
12:37 PM,80.6,69.8,70,29.96,8.0,SSE,9.2,-,N/A,,Partly Cloudy,160,2014-06-25 16:37:00
12:56 PM,82.0,70.0,67,29.93,8.0,SSE,8.1,-,N/A,,Mostly Cloudy,150,2014-06-25 16:56:00
1:56 PM,82.0,70.0,67,29.92,10.0,South,9.2,20.7,N/A,,Mostly Cloudy,170,2014-06-25 17:56:00
2:56 PM,81.0,69.1,67,29.90,10.0,SSW,8.1,16.1,N/A,,Mostly Cloudy,200,2014-06-25 18:56:00
3:56 PM,81.0,70.0,69,29.89,10.0,SSE,10.4,20.7,N/A,,Mostly Cloudy,160,2014-06-25 19:56:00
4:56 PM,80.1,69.1,69,29.87,10.0,South,12.7,23.0,N/A,,Scattered Clouds,190,2014-06-25 20:56:00
5:56 PM,79.0,69.1,72,29.85,10.0,South,11.5,21.9,N/A,,Scattered Clouds,170,2014-06-25 21:56:00
6:56 PM,77.0,69.1,76,29.85,10.0,SSE,10.4,17.3,N/A,,Scattered Clouds,160,2014-06-25 22:56:00
7:40 PM,75.2,69.8,83,29.87,10.0,South,6.9,-,N/A,,Mostly Cloudy,180,2014-06-25 23:40:00
7:56 PM,75.0,69.1,82,29.84,10.0,South,11.5,17.3,N/A,,Mostly Cloudy,170,2014-06-25 23:56:00
8:03 PM,75.2,69.8,83,29.85,10.0,SSE,8.1,17.3,N/A,,Partly Cloudy,160,2014-06-26 00:03:00
8:35 PM,73.4,69.8,88,29.85,10.0,SSE,10.4,16.1,N/A,,Mostly Cloudy,160,2014-06-26 00:35:00
8:56 PM,73.0,70.0,90,29.84,10.0,SSE,6.9,-,N/A,,Mostly Cloudy,150,2014-06-26 00:56:00
9:30 PM,73.4,69.8,88,29.86,10.0,South,6.9,-,N/A,,Mostly Cloudy,170,2014-06-26 01:30:00
9:56 PM,73.0,70.0,90,29.85,9.0,South,6.9,-,N/A,,Mostly Cloudy,170,2014-06-26 01:56:00
10:56 PM,73.4,69.8,88,29.85,8.0,South,6.9,-,N/A,,Mostly Cloudy,180,2014-06-26 02:56:00
11:56 PM,73.4,69.8,88,29.85,7.0,Variable,4.6,-,N/A,,Mostly Cloudy,0,2014-06-26 03:56:00